| time (UTC) | temp F | wind direction | speed MPH | gust MPH | rain 1hr in | rain 24hr in | rain mn in | humidity % | barometer mb |
| 20260905233314 | 50 | 39 | 2.0 | 3.0 | 0.00 | 0.00 | 0.00 | 87 | 1026.9 |
| 20260905232831 | 50 | 39 | 1.0 | 3.0 | 0.00 | 0.00 | 0.00 | 87 | 1026.9 |
| 20260905232326 | 50 | 39 | 2.0 | 3.0 | 0.00 | 0.00 | 0.00 | 87 | 1026.9 |
| 20260905231818 | 50 | 39 | 1.0 | 2.0 | 0.00 | 0.00 | 0.00 | 87 | 1026.9 |
| 20260905231333 | 50 | 39 | 1.0 | 2.0 | 0.00 | 0.00 | 0.00 | 87 | 1026.9 |
| 20260905230848 | 51 | 39 | 0.0 | 2.0 | 0.00 | 0.00 | 0.00 | 87 | 1026.9 |
| 20260905230325 | 51 | 39 | 1.0 | 2.0 | 0.00 | 0.00 | 0.00 | 87 | 1026.8 |
| 20260905225840 | 50 | 39 | 1.0 | 3.0 | 0.00 | 0.00 | 0.00 | 86 | 1026.7 |
| 20260905225317 | 51 | 39 | 1.0 | 3.0 | 0.00 | 0.00 | 0.00 | 86 | 1026.8 |
| 20260905224834 | 51 | 39 | 1.0 | 1.0 | 0.00 | 0.00 | 0.00 | 86 | 1026.8 |
| 20260905224331 | 51 | 39 | 1.0 | 1.0 | 0.00 | 0.00 | 0.00 | 85 | 1026.8 |
| 20260905223825 | 51 | 39 | 0.0 | 1.0 | 0.00 | 0.00 | 0.00 | 85 | 1026.8 |
| 20260905223322 | 52 | 39 | 0.0 | 1.0 | 0.00 | 0.00 | 0.00 | 84 | 1026.7 |
| 20260905222836 | 52 | 39 | 0.0 | 2.0 | 0.00 | 0.00 | 0.00 | 85 | 1026.7 |
| 20260905222331 | 52 | 39 | 1.0 | 2.0 | 0.00 | 0.00 | 0.00 | 84 | 1026.6 |
| 20260905221827 | 53 | 39 | 0.0 | 2.0 | 0.00 | 0.00 | 0.00 | 83 | 1026.7 |
| 20260905221324 | 53 | 39 | 0.0 | 4.0 | 0.00 | 0.00 | 0.00 | 83 | 1026.7 |
| 20260905220818 | 53 | 39 | 3.0 | 4.0 | 0.00 | 0.00 | 0.00 | 83 | 1026.6 |
| 20260905220334 | 53 | 39 | 2.0 | 3.0 | 0.00 | 0.00 | 0.00 | 83 | 1026.6 |
| 20260905215820 | 54 | 39 | 1.0 | 3.0 | 0.00 | 0.00 | 0.00 | 82 | 1026.7 |
| 20260905215338 | 54 | 39 | 1.0 | 3.0 | 0.00 | 0.00 | 0.00 | 81 | 1026.6 |
| 20260905214834 | 55 | 39 | 3.0 | 4.0 | 0.00 | 0.00 | 0.00 | 81 | 1026.6 |
| 20260905214350 | 55 | 39 | 2.0 | 5.0 | 0.00 | 0.00 | 0.00 | 81 | 1026.7 |
| 20260905213823 | 55 | 39 | 3.0 | 5.0 | 0.00 | 0.00 | 0.00 | 81 | 1026.7 |
| 20260905213321 | 55 | 36 | 3.0 | 4.0 | 0.00 | 0.00 | 0.00 | 81 | 1026.7 |
| 20260905212816 | 54 | 51 | 2.0 | 4.0 | 0.00 | 0.00 | 0.00 | 81 | 1026.7 |
| 20260905212332 | 55 | 51 | 2.0 | 4.0 | 0.00 | 0.00 | 0.00 | 81 | 1026.8 |
| 20260905211815 | 55 | 51 | 1.0 | 2.0 | 0.00 | 0.00 | 0.00 | 80 | 1026.8 |
| 20260905211331 | 55 | 51 | 1.0 | 2.0 | 0.00 | 0.00 | 0.00 | 80 | 1026.8 |
| 20260905210826 | 55 | 51 | 1.0 | 2.0 | 0.00 | 0.00 | 0.00 | 79 | 1026.8 |
| 20260905210325 | 55 | 51 | 0.0 | 3.0 | 0.00 | 0.00 | 0.00 | 78 | 1026.9 |
| 20260905205832 | 56 | 51 | 0.0 | 5.0 | 0.00 | 0.00 | 0.00 | 77 | 1026.9 |
| 20260905205331 | 55 | 51 | 3.0 | 5.0 | 0.00 | 0.00 | 0.00 | 79 | 1026.8 |
| 20260905204822 | 55 | 49 | 4.0 | 5.0 | 0.00 | 0.00 | 0.00 | 79 | 1026.8 |
| 20260905204339 | 55 | 21 | 0.0 | 3.0 | 0.00 | 0.00 | 0.00 | 78 | 1026.8 |
| 20260905203832 | 56 | 21 | 2.0 | 3.0 | 0.00 | 0.00 | 0.00 | 78 | 1026.7 |
| 20260905203329 | 56 | 21 | 2.0 | 3.0 | 0.00 | 0.00 | 0.00 | 77 | 1026.6 |
| 20260905202820 | 56 | 21 | 2.0 | 3.0 | 0.00 | 0.00 | 0.00 | 77 | 1026.6 |
| 20260905202337 | 56 | 21 | 2.0 | 3.0 | 0.00 | 0.00 | 0.00 | 77 | 1026.6 |
| 20260905201854 | 55 | 21 | 2.0 | 3.0 | 0.00 | 0.00 | 0.00 | 77 | 1026.5 |
| 20260905201330 | 56 | 21 | 1.0 | 2.0 | 0.00 | 0.00 | 0.00 | 76 | 1026.6 |
| 20260905200827 | 56 | 21 | 0.0 | 1.0 | 0.00 | 0.00 | 0.00 | 76 | 1026.6 |
| 20260905200345 | 56 | 21 | 0.0 | 1.0 | 0.00 | 0.00 | 0.00 | 76 | 1026.6 |
| 20260905195819 | 56 | 21 | 0.0 | 2.0 | 0.00 | 0.00 | 0.00 | 75 | 1026.5 |
| 20260905195315 | 56 | 21 | 1.0 | 1.0 | 0.00 | 0.00 | 0.00 | 74 | 1026.5 |
| 20260905194830 | 57 | 21 | 0.0 | 2.0 | 0.00 | 0.00 | 0.00 | 73 | 1026.5 |
| 20260905194328 | 57 | 21 | 1.0 | 2.0 | 0.00 | 0.00 | 0.00 | 73 | 1026.5 |
| 20260905193824 | 57 | 21 | 0.0 | 2.0 | 0.00 | 0.00 | 0.00 | 72 | 1026.4 |
| 20260905193323 | 58 | 21 | 1.0 | 3.0 | 0.00 | 0.00 | 0.00 | 71 | 1026.4 |
| 20260905192819 | 58 | 21 | 1.0 | 3.0 | 0.00 | 0.00 | 0.00 | 71 | 1026.3 |
| 20260905192337 | 58 | 21 | 2.0 | 2.0 | 0.00 | 0.00 | 0.00 | 70 | 1026.4 |
| 20260905191833 | 58 | 21 | 1.0 | 2.0 | 0.00 | 0.00 | 0.00 | 70 | 1026.5 |
| 20260905191350 | 58 | 21 | 1.0 | 2.0 | 0.00 | 0.00 | 0.00 | 70 | 1026.5 |
| 20260905190824 | 58 | 21 | 1.0 | 2.0 | 0.00 | 0.00 | 0.00 | 70 | 1026.5 |
| 20260905190321 | 58 | 21 | 0.0 | 1.0 | 0.00 | 0.00 | 0.00 | 69 | 1026.4 |
| 20260905185837 | 59 | 21 | 0.0 | 0.0 | 0.00 | 0.00 | 0.00 | 67 | 1026.4 |
| 20260905185333 | 60 | 21 | 0.0 | 0.0 | 0.00 | 0.00 | 0.00 | 66 | 1026.2 |
| 20260905184848 | 60 | 21 | 0.0 | 1.0 | 0.00 | 0.00 | 0.00 | 65 | 1026.2 |
| 20260905184326 | 61 | 21 | 0.0 | 2.0 | 0.00 | 0.00 | 0.00 | 63 | 1026.0 |
| 20260905183820 | 62 | 21 | 1.0 | 2.0 | 0.00 | 0.00 | 0.00 | 62 | 1026.0 |
| 20260905183318 | 62 | 21 | 1.0 | 3.0 | 0.00 | 0.00 | 0.00 | 61 | 1026.0 |
| 20260905182830 | 63 | 21 | 2.0 | 5.0 | 0.00 | 0.00 | 0.00 | 60 | 1025.9 |
| 20260905182347 | 63 | 17 | 3.0 | 5.0 | 0.00 | 0.00 | 0.00 | 59 | 1026.0 |
| 20260905181820 | 64 | 14 | 2.0 | 6.0 | 0.00 | 0.00 | 0.00 | 58 | 1025.9 |
| 20260905181337 | 65 | 15 | 3.0 | 6.0 | 0.00 | 0.00 | 0.00 | 57 | 1025.8 |
| 20260905180853 | 66 | 12 | 5.0 | 7.0 | 0.00 | 0.00 | 0.00 | 56 | 1025.8 |
| 20260905180328 | 66 | 9 | 6.0 | 7.0 | 0.00 | 0.00 | 0.00 | 55 | 1025.8 |
| 20260905175824 | 67 | 355 | 4.0 | 6.0 | 0.00 | 0.00 | 0.00 | 53 | 1025.8 |
| 20260905175323 | 68 | 9 | 5.0 | 8.0 | 0.00 | 0.00 | 0.00 | 52 | 1025.7 |
| 20260905174820 | 69 | 355 | 5.0 | 8.0 | 0.00 | 0.00 | 0.00 | 51 | 1025.7 |
| 20260905174316 | 69 | 355 | 7.0 | 8.0 | 0.00 | 0.00 | 0.00 | 50 | 1025.6 |
| 20260905173831 | 69 | 340 | 4.0 | 6.0 | 0.00 | 0.00 | 0.00 | 49 | 1025.6 |
| 20260905173329 | 70 | 346 | 4.0 | 8.0 | 0.00 | 0.00 | 0.00 | 48 | 1025.7 |
| 20260905172825 | 70 | 336 | 4.0 | 8.0 | 0.00 | 0.00 | 0.00 | 48 | 1025.7 |
| 20260905172324 | 71 | 305 | 3.0 | 9.0 | 0.00 | 0.00 | 0.00 | 47 | 1025.7 |
| 20260905171819 | 71 | 344 | 4.0 | 9.0 | 0.00 | 0.00 | 0.00 | 46 | 1025.6 |
| 20260905171317 | 71 | 333 | 5.0 | 9.0 | 0.00 | 0.00 | 0.00 | 45 | 1025.6 |
| 20260905170833 | 72 | 340 | 4.0 | 6.0 | 0.00 | 0.00 | 0.00 | 47 | 1025.7 |
| 20260905170333 | 72 | 355 | 4.0 | 10.0 | 0.00 | 0.00 | 0.00 | 45 | 1025.7 |
| 20260905165830 | 72 | 313 | 6.0 | 10.0 | 0.00 | 0.00 | 0.00 | 45 | 1025.6 |
| 20260905165348 | 73 | 327 | 3.0 | 10.0 | 0.00 | 0.00 | 0.00 | 45 | 1025.6 |
| 20260905164823 | 73 | 329 | 6.0 | 10.0 | 0.00 | 0.00 | 0.00 | 44 | 1025.6 |
| 20260905164321 | 73 | 327 | 5.0 | 9.0 | 0.00 | 0.00 | 0.00 | 45 | 1025.6 |
| 20260905163826 | 73 | 317 | 3.0 | 11.0 | 0.00 | 0.00 | 0.00 | 44 | 1025.6 |
| 20260905163324 | 73 | 344 | 5.0 | 11.0 | 0.00 | 0.00 | 0.00 | 44 | 1025.5 |
| 20260905162832 | 73 | 337 | 8.0 | 11.0 | 0.00 | 0.00 | 0.00 | 44 | 1025.4 |
| 20260905162329 | 73 | 294 | 5.0 | 10.0 | 0.00 | 0.00 | 0.00 | 43 | 1025.4 |
| 20260905161825 | 74 | 269 | 3.0 | 9.0 | 0.00 | 0.00 | 0.00 | 40 | 1025.4 |
| 20260905161321 | 74 | 238 | 3.0 | 11.0 | 0.00 | 0.00 | 0.00 | 40 | 1025.4 |
| 20260905160838 | 74 | 319 | 5.0 | 11.0 | 0.00 | 0.00 | 0.00 | 40 | 1025.4 |
| 20260905160315 | 74 | 307 | 3.0 | 9.0 | 0.00 | 0.00 | 0.00 | 41 | 1025.4 |
| 20260905155826 | 74 | 295 | 6.0 | 10.0 | 0.00 | 0.00 | 0.00 | 41 | 1025.4 |
| 20260905155325 | 74 | 273 | 5.0 | 10.0 | 0.00 | 0.00 | 0.00 | 42 | 1025.4 |
| 20260905154823 | 74 | 344 | 6.0 | 10.0 | 0.00 | 0.00 | 0.00 | 42 | 1025.3 |
| 20260905154320 | 74 | 20 | 2.0 | 8.0 | 0.00 | 0.00 | 0.00 | 42 | 1025.3 |
| 20260905153836 | 74 | 9 | 3.0 | 8.0 | 0.00 | 0.00 | 0.00 | 41 | 1025.4 |
| 20260905153354 | 74 | 252 | 3.0 | 11.0 | 0.00 | 0.00 | 0.00 | 40 | 1025.4 |
| 20260905152830 | 74 | 355 | 7.0 | 11.0 | 0.00 | 0.00 | 0.00 | 40 | 1025.4 |
| 20260905152329 | 74 | 329 | 3.0 | 8.0 | 0.00 | 0.00 | 0.00 | 42 | 1025.4 |
| 20260905151824 | 74 | 313 | 5.0 | 11.0 | 0.00 | 0.00 | 0.00 | 43 | 1025.5 |
| 20260905151343 | 75 | 291 | 8.0 | 11.0 | 0.00 | 0.00 | 0.00 | 41 | 1025.4 |
| 20260905150817 | 75 | 272 | 5.0 | 11.0 | 0.00 | 0.00 | 0.00 | 40 | 1025.4 |
| 20260905150337 | 76 | 289 | 4.0 | 10.0 | 0.00 | 0.00 | 0.00 | 42 | 1025.3 |
| 20260905145832 | 76 | 355 | 7.0 | 10.0 | 0.00 | 0.00 | 0.00 | 42 | 1025.3 |
| 20260905145332 | 76 | 298 | 6.0 | 10.0 | 0.00 | 0.00 | 0.00 | 41 | 1025.3 |
| 20260905144827 | 75 | 33 | 2.0 | 13.0 | 0.00 | 0.00 | 0.00 | 39 | 1025.4 |
| 20260905144324 | 75 | 355 | 7.0 | 13.0 | 0.00 | 0.00 | 0.00 | 38 | 1025.4 |
| 20260905143822 | 75 | 293 | 7.0 | 11.0 | 0.00 | 0.00 | 0.00 | 40 | 1025.6 |
| 20260905143342 | 75 | 248 | 5.0 | 12.0 | 0.00 | 0.00 | 0.00 | 37 | 1025.6 |
| 20260905142817 | 76 | 252 | 6.0 | 12.0 | 0.00 | 0.00 | 0.00 | 38 | 1025.6 |
| 20260905142314 | 76 | 334 | 4.0 | 13.0 | 0.00 | 0.00 | 0.00 | 41 | 1025.5 |
| 20260905141830 | 76 | 321 | 3.0 | 12.0 | 0.00 | 0.00 | 0.00 | 42 | 1025.6 |
| 20260905141347 | 75 | 293 | 7.0 | 12.0 | 0.00 | 0.00 | 0.00 | 41 | 1025.6 |
| 20260905140819 | 75 | 264 | 6.0 | 12.0 | 0.00 | 0.00 | 0.00 | 40 | 1025.7 |
| 20260905140316 | 76 | 235 | 7.0 | 12.0 | 0.00 | 0.00 | 0.00 | 41 | 1025.7 |
| 20260905135832 | 76 | 9 | 3.0 | 9.0 | 0.00 | 0.00 | 0.00 | 41 | 1025.7 |
| 20260905135350 | 76 | 36 | 4.0 | 13.0 | 0.00 | 0.00 | 0.00 | 42 | 1025.7 |
| 20260905134825 | 76 | 264 | 9.0 | 13.0 | 0.00 | 0.00 | 0.00 | 40 | 1025.8 |
| 20260905134320 | 76 | 291 | 7.0 | 13.0 | 0.00 | 0.00 | 0.00 | 42 | 1025.7 |
| 20260905133816 | 75 | 348 | 5.0 | 13.0 | 0.00 | 0.00 | 0.00 | 41 | 1025.8 |
| 20260905133329 | 75 | 276 | 5.0 | 13.0 | 0.00 | 0.00 | 0.00 | 43 | 1025.8 |
| 20260905132824 | 76 | 273 | 6.0 | 10.0 | 0.00 | 0.00 | 0.00 | 42 | 1025.7 |
| 20260905132321 | 75 | 336 | 6.0 | 11.0 | 0.00 | 0.00 | 0.00 | 43 | 1025.7 |
| 20260905131818 | 75 | 198 | 5.0 | 11.0 | 0.00 | 0.00 | 0.00 | 43 | 1025.6 |
| 20260905131316 | 75 | 163 | 3.0 | 10.0 | 0.00 | 0.00 | 0.00 | 44 | 1025.5 |
| 20260905130834 | 74 | 194 | 3.0 | 10.0 | 0.00 | 0.00 | 0.00 | 44 | 1025.5 |
| 20260905130333 | 75 | 267 | 3.0 | 11.0 | 0.00 | 0.00 | 0.00 | 45 | 1025.5 |
| 20260905125829 | 75 | 277 | 6.0 | 14.0 | 0.00 | 0.00 | 0.00 | 43 | 1025.7 |
| 20260905125326 | 74 | 293 | 6.0 | 14.0 | 0.00 | 0.00 | 0.00 | 44 | 1025.6 |
| 20260905124822 | 74 | 312 | 2.0 | 12.0 | 0.00 | 0.00 | 0.00 | 47 | 1025.7 |
| 20260905124321 | 74 | 276 | 6.0 | 12.0 | 0.00 | 0.00 | 0.00 | 45 | 1025.7 |
| 20260905123817 | 75 | 282 | 5.0 | 10.0 | 0.00 | 0.00 | 0.00 | 41 | 1025.8 |
| 20260905123315 | 74 | 41 | 3.0 | 9.0 | 0.00 | 0.00 | 0.00 | 44 | 1025.7 |
| 20260905122830 | 74 | 316 | 5.0 | 10.0 | 0.00 | 0.00 | 0.00 | 44 | 1025.7 |
| 20260905122329 | 75 | 167 | 5.0 | 10.0 | 0.00 | 0.00 | 0.00 | 43 | 1025.6 |
| 20260905121815 | 74 | 318 | 6.0 | 12.0 | 0.00 | 0.00 | 0.00 | 45 | 1025.7 |
| 20260905121314 | 74 | 271 | 9.0 | 12.0 | 0.00 | 0.00 | 0.00 | 45 | 1025.7 |
| 20260905120830 | 73 | 346 | 5.0 | 10.0 | 0.00 | 0.00 | 0.00 | 51 | 1025.7 |
| 20260905120327 | 73 | 265 | 7.0 | 11.0 | 0.00 | 0.00 | 0.00 | 48 | 1025.7 |
| 20260905115822 | 73 | 260 | 4.0 | 11.0 | 0.00 | 0.00 | 0.00 | 47 | 1025.8 |
| 20260905115339 | 73 | 296 | 7.0 | 11.0 | 0.00 | 0.00 | 0.00 | 47 | 1025.7 |
| 20260905114834 | 73 | 265 | 4.0 | 11.0 | 0.00 | 0.00 | 0.00 | 49 | 1025.7 |
| 20260905114351 | 73 | 318 | 9.0 | 11.0 | 0.00 | 0.00 | 0.00 | 49 | 1025.8 |
| 20260905113824 | 73 | 316 | 6.0 | 10.0 | 0.00 | 0.00 | 0.00 | 49 | 1025.7 |
| 20260905113320 | 72 | 314 | 2.0 | 8.0 | 0.00 | 0.00 | 0.00 | 52 | 1025.8 |
| 20260905112817 | 72 | 277 | 6.0 | 11.0 | 0.00 | 0.00 | 0.00 | 54 | 1025.8 |
| 20260905112314 | 72 | 256 | 3.0 | 9.0 | 0.00 | 0.00 | 0.00 | 52 | 1025.8 |
| 20260905111831 | 72 | 312 | 6.0 | 9.0 | 0.00 | 0.00 | 0.00 | 53 | 1025.9 |
| 20260905111328 | 71 | 329 | 2.0 | 11.0 | 0.00 | 0.00 | 0.00 | 54 | 1025.8 |
| 20260905110823 | 72 | 28 | 2.0 | 12.0 | 0.00 | 0.00 | 0.00 | 53 | 1025.8 |
| 20260905110342 | 72 | 284 | 7.0 | 12.0 | 0.00 | 0.00 | 0.00 | 55 | 1025.8 |
| 20260905105833 | 72 | 284 | 3.0 | 10.0 | 0.00 | 0.00 | 0.00 | 55 | 1025.7 |
| 20260905105330 | 71 | 304 | 4.0 | 10.0 | 0.00 | 0.00 | 0.00 | 55 | 1025.8 |
| 20260905104826 | 71 | 257 | 4.0 | 9.0 | 0.00 | 0.00 | 0.00 | 57 | 1025.7 |
| 20260905104339 | 71 | 279 | 2.0 | 12.0 | 0.00 | 0.00 | 0.00 | 56 | 1025.8 |
| 20260905103901 | 70 | 322 | 7.0 | 12.0 | 0.00 | 0.00 | 0.00 | 57 | 1025.9 |
| 20260905103359 | 69 | 216 | 3.0 | 11.0 | 0.00 | 0.00 | 0.00 | 58 | 1025.8 |
| 20260905102854 | 70 | 276 | 9.0 | 14.0 | 0.00 | 0.00 | 0.00 | 59 | 1025.9 |
| 20260905102332 | 70 | 317 | 6.0 | 12.0 | 0.00 | 0.00 | 0.00 | 59 | 1025.9 |
| 20260905101827 | 70 | 299 | 5.0 | 12.0 | 0.00 | 0.00 | 0.00 | 58 | 1025.9 |
| 20260905101344 | 70 | 287 | 4.0 | 11.0 | 0.00 | 0.00 | 0.00 | 58 | 1025.9 |
| 20260905100839 | 70 | 223 | 3.0 | 10.0 | 0.00 | 0.00 | 0.00 | 62 | 1025.9 |
| 20260905100355 | 70 | 275 | 6.0 | 10.0 | 0.00 | 0.00 | 0.00 | 61 | 1025.9 |
| 20260905095826 | 69 | 9 | 6.0 | 11.0 | 0.00 | 0.00 | 0.00 | 62 | 1025.9 |
| 20260905095324 | 69 | 9 | 6.0 | 11.0 | 0.00 | 0.00 | 0.00 | 61 | 1025.9 |
| 20260905094820 | 69 | 259 | 7.0 | 13.0 | 0.00 | 0.00 | 0.00 | 62 | 1026.0 |
| 20260905094318 | 69 | 351 | 4.0 | 14.0 | 0.00 | 0.00 | 0.00 | 64 | 1025.9 |
| 20260905093832 | 69 | 304 | 8.0 | 14.0 | 0.00 | 0.00 | 0.00 | 65 | 1025.8 |
| 20260905093349 | 68 | 301 | 5.0 | 12.0 | 0.00 | 0.00 | 0.00 | 65 | 1025.8 |
| 20260905092838 | 67 | 291 | 8.0 | 11.0 | 0.00 | 0.00 | 0.00 | 67 | 1025.8 |
| 20260905092315 | 67 | 282 | 3.0 | 10.0 | 0.00 | 0.00 | 0.00 | 68 | 1025.8 |
| 20260905091832 | 68 | 303 | 6.0 | 9.0 | 0.00 | 0.00 | 0.00 | 66 | 1025.8 |
| 20260905091346 | 67 | 311 | 4.0 | 9.0 | 0.00 | 0.00 | 0.00 | 67 | 1025.6 |
| 20260905090840 | 67 | 349 | 3.0 | 11.0 | 0.00 | 0.00 | 0.00 | 67 | 1025.6 |
| 20260905090316 | 67 | 325 | 8.0 | 11.0 | 0.00 | 0.00 | 0.00 | 67 | 1025.6 |
| 20260905085830 | 67 | 333 | 4.0 | 11.0 | 0.00 | 0.00 | 0.00 | 67 | 1025.5 |
| 20260905085330 | 67 | 9 | 4.0 | 10.0 | 0.00 | 0.00 | 0.00 | 68 | 1025.5 |
| 20260905084825 | 66 | 340 | 5.0 | 10.0 | 0.00 | 0.00 | 0.00 | 71 | 1025.6 |
| 20260905084321 | 66 | 287 | 4.0 | 11.0 | 0.00 | 0.00 | 0.00 | 71 | 1025.5 |
| 20260905083818 | 65 | 322 | 4.0 | 11.0 | 0.00 | 0.00 | 0.00 | 72 | 1025.5 |
| 20260905083338 | 66 | 319 | 5.0 | 11.0 | 0.00 | 0.00 | 0.00 | 72 | 1025.4 |
| 20260905082832 | 65 | 299 | 3.0 | 9.0 | 0.00 | 0.00 | 0.00 | 74 | 1025.4 |
| 20260905082328 | 65 | 315 | 5.0 | 9.0 | 0.00 | 0.00 | 0.00 | 74 | 1025.3 |
| 20260905081824 | 65 | 349 | 3.0 | 9.0 | 0.00 | 0.00 | 0.00 | 74 | 1025.3 |
| 20260905081322 | 66 | 333 | 4.0 | 11.0 | 0.00 | 0.00 | 0.00 | 75 | 1025.2 |
| 20260905080817 | 66 | 323 | 6.0 | 11.0 | 0.00 | 0.00 | 0.00 | 75 | 1025.1 |
| 20260905080315 | 65 | 345 | 5.0 | 11.0 | 0.00 | 0.00 | 0.00 | 78 | 1025.1 |
| 20260905075830 | 64 | 19 | 6.0 | 9.0 | 0.00 | 0.00 | 0.00 | 79 | 1025.1 |
| 20260905075329 | 63 | 323 | 4.0 | 9.0 | 0.00 | 0.00 | 0.00 | 79 | 1025.0 |
| 20260905074824 | 64 | 331 | 5.0 | 9.0 | 0.00 | 0.00 | 0.00 | 80 | 1025.0 |
| 20260905074321 | 63 | 275 | 2.0 | 7.0 | 0.00 | 0.00 | 0.00 | 81 | 1025.0 |
| 20260905073837 | 63 | 298 | 4.0 | 7.0 | 0.00 | 0.00 | 0.00 | 82 | 1024.9 |
| 20260905073314 | 62 | 255 | 5.0 | 8.0 | 0.00 | 0.00 | 0.00 | 83 | 1024.9 |
| 20260905072829 | 62 | 327 | 4.0 | 8.0 | 0.00 | 0.00 | 0.00 | 83 | 1024.9 |
| 20260905072326 | 62 | 269 | 3.0 | 7.0 | 0.00 | 0.00 | 0.00 | 84 | 1024.8 |
| 20260905071818 | 62 | 260 | 5.0 | 8.0 | 0.00 | 0.00 | 0.00 | 85 | 1024.7 |
| 20260905071316 | 61 | 279 | 4.0 | 7.0 | 0.00 | 0.00 | 0.00 | 86 | 1024.6 |
| 20260905070832 | 61 | 311 | 3.0 | 7.0 | 0.00 | 0.00 | 0.00 | 86 | 1024.5 |
| 20260905070330 | 61 | 290 | 2.0 | 6.0 | 0.00 | 0.00 | 0.00 | 87 | 1024.5 |
| 20260905065824 | 61 | 309 | 4.0 | 6.0 | 0.00 | 0.00 | 0.00 | 87 | 1024.5 |
| 20260905065323 | 60 | 250 | 3.0 | 6.0 | 0.00 | 0.00 | 0.00 | 88 | 1024.5 |
| 20260905064817 | 60 | 282 | 2.0 | 4.0 | 0.00 | 0.00 | 0.00 | 89 | 1024.4 |
| 20260905064314 | 60 | 286 | 2.0 | 6.0 | 0.00 | 0.00 | 0.00 | 90 | 1024.3 |
| 20260905063829 | 59 | 251 | 2.0 | 5.0 | 0.00 | 0.00 | 0.00 | 91 | 1024.4 |
| 20260905063325 | 59 | 284 | 1.0 | 2.0 | 0.00 | 0.00 | 0.00 | 91 | 1024.4 |
| 20260905062857 | 58 | 284 | 0.0 | 2.0 | 0.00 | 0.00 | 0.00 | 91 | 1024.4 |
| 20260905062333 | 58 | 284 | 1.0 | 2.0 | 0.00 | 0.00 | 0.00 | 91 | 1024.3 |
| 20260905061827 | 58 | 284 | 1.0 | 2.0 | 0.00 | 0.00 | 0.00 | 91 | 1024.1 |
| 20260905061325 | 57 | 284 | 1.0 | 2.0 | 0.00 | 0.00 | 0.00 | 91 | 1024.0 |
| 20260905060819 | 57 | 285 | 1.0 | 2.0 | 0.00 | 0.00 | 0.00 | 91 | 1024.0 |
| 20260905060316 | 57 | 285 | 1.0 | 2.0 | 0.00 | 0.00 | 0.00 | 91 | 1023.9 |
| 20260905055831 | 57 | 285 | 0.0 | 2.0 | 0.00 | 0.00 | 0.00 | 91 | 1023.8 |
| 20260905055330 | 57 | 285 | 1.0 | 2.0 | 0.00 | 0.00 | 0.00 | 92 | 1023.7 |
| 20260905054824 | 57 | 285 | 0.0 | 2.0 | 0.00 | 0.00 | 0.00 | 92 | 1023.6 |
| 20260905054322 | 57 | 285 | 1.0 | 2.0 | 0.00 | 0.00 | 0.00 | 92 | 1023.6 |
| 20260905053839 | 56 | 285 | 0.0 | 0.0 | 0.00 | 0.00 | 0.00 | 92 | 1023.5 |
| 20260905053335 | 56 | 285 | 0.0 | 1.0 | 0.00 | 0.00 | 0.00 | 92 | 1023.4 |
| 20260905052828 | 56 | 285 | 0.0 | 2.0 | 0.00 | 0.00 | 0.00 | 92 | 1023.4 |
| 20260905052345 | 56 | 285 | 1.0 | 2.0 | 0.00 | 0.00 | 0.00 | 91 | 1023.2 |
| 20260905051818 | 56 | 285 | 1.0 | 3.0 | 0.00 | 0.00 | 0.00 | 92 | 1023.2 |
| 20260905051315 | 56 | 285 | 2.0 | 3.0 | 0.00 | 0.00 | 0.00 | 91 | 1023.2 |
| 20260905050829 | 56 | 285 | 2.0 | 2.0 | 0.00 | 0.00 | 0.00 | 91 | 1023.1 |
| 20260905050326 | 55 | 285 | 1.0 | 2.0 | 0.00 | 0.00 | 0.00 | 91 | 1023.0 |
| 20260905045821 | 55 | 285 | 0.0 | 1.0 | 0.00 | 0.00 | 0.00 | 91 | 1022.9 |
| 20260905045338 | 55 | 285 | 1.0 | 2.0 | 0.00 | 0.00 | 0.00 | 91 | 1022.8 |
| 20260905044832 | 55 | 285 | 0.0 | 2.0 | 0.00 | 0.00 | 0.00 | 91 | 1022.8 |
| 20260905044330 | 55 | 285 | 1.0 | 1.0 | 0.00 | 0.00 | 0.00 | 91 | 1022.8 |
| 20260905043824 | 55 | 285 | 0.0 | 2.0 | 0.00 | 0.00 | 0.00 | 91 | 1022.7 |
| 20260905043341 | 55 | 285 | 1.0 | 2.0 | 0.00 | 0.00 | 0.00 | 91 | 1022.7 |
| 20260905042816 | 56 | 285 | 0.0 | 2.0 | 0.00 | 0.00 | 0.00 | 91 | 1022.7 |
| 20260905042314 | 55 | 285 | 1.0 | 2.0 | 0.00 | 0.00 | 0.00 | 90 | 1022.6 |
| 20260905041853 | 56 | 284 | 1.0 | 2.0 | 0.00 | 0.00 | 0.00 | 90 | 1022.6 |
| 20260905041328 | 56 | 284 | 1.0 | 2.0 | 0.00 | 0.00 | 0.00 | 90 | 1022.7 |
| 20260905040823 | 56 | 284 | 1.0 | 2.0 | 0.00 | 0.00 | 0.00 | 90 | 1022.6 |
| 20260905040318 | 56 | 254 | 0.0 | 1.0 | 0.00 | 0.00 | 0.00 | 90 | 1022.6 |
| 20260905035854 | 56 | 254 | 0.0 | 1.0 | 0.00 | 0.00 | 0.00 | 90 | 1022.6 |
| 20260905035331 | 56 | 254 | 0.0 | 2.0 | 0.00 | 0.00 | 0.00 | 90 | 1022.5 |
| 20260905034825 | 56 | 254 | 1.0 | 2.0 | 0.00 | 0.00 | 0.00 | 89 | 1022.4 |
| 20260905034323 | 56 | 277 | 1.0 | 2.0 | 0.00 | 0.00 | 0.00 | 89 | 1022.5 |
| 20260905033819 | 56 | 277 | 1.0 | 2.0 | 0.00 | 0.00 | 0.00 | 89 | 1022.4 |
| 20260905033316 | 56 | 277 | 1.0 | 2.0 | 0.00 | 0.00 | 0.00 | 89 | 1022.4 |
| 20260905032832 | 56 | 277 | 0.0 | 2.0 | 0.00 | 0.00 | 0.00 | 88 | 1022.3 |
| 20260905032329 | 57 | 277 | 1.0 | 2.0 | 0.00 | 0.00 | 0.00 | 89 | 1022.2 |
| 20260905031822 | 57 | 277 | 0.0 | 2.0 | 0.00 | 0.00 | 0.00 | 88 | 1022.2 |
| 20260905031318 | 57 | 277 | 1.0 | 2.0 | 0.00 | 0.00 | 0.00 | 88 | 1022.2 |
| 20260905030901 | 57 | 277 | 0.0 | 1.0 | 0.00 | 0.00 | 0.00 | 87 | 1022.1 |
| 20260905030356 | 58 | 277 | 0.0 | 2.0 | 0.00 | 0.00 | 0.00 | 87 | 1022.1 |
| 20260905025829 | 58 | 277 | 1.0 | 2.0 | 0.00 | 0.00 | 0.00 | 87 | 1022.0 |
| 20260905025345 | 58 | 277 | 0.0 | 2.0 | 0.00 | 0.00 | 0.00 | 87 | 1022.0 |
| 20260905024817 | 58 | 277 | 0.0 | 2.0 | 0.00 | 0.00 | 0.00 | 86 | 1022.0 |
| 20260905024328 | 59 | 277 | 1.0 | 2.0 | 0.00 | 0.00 | 0.00 | 86 | 1021.9 |
| 20260905023819 | 59 | 277 | 1.0 | 2.0 | 0.00 | 0.00 | 0.00 | 85 | 1021.9 |
| 20260905023315 | 60 | 277 | 0.0 | 2.0 | 0.00 | 0.00 | 0.00 | 84 | 1021.8 |
| 20260905022830 | 60 | 277 | 0.0 | 3.0 | 0.00 | 0.00 | 0.00 | 84 | 1021.9 |
| 20260905022324 | 61 | 277 | 1.0 | 3.0 | 0.00 | 0.00 | 0.00 | 84 | 1021.8 |
| 20260905021840 | 61 | 277 | 2.0 | 3.0 | 0.00 | 0.00 | 0.00 | 83 | 1021.7 |
| 20260905021316 | 61 | 277 | 1.0 | 2.0 | 0.00 | 0.00 | 0.00 | 83 | 1021.7 |
| 20260905020831 | 62 | 277 | 1.0 | 2.0 | 0.00 | 0.00 | 0.00 | 82 | 1021.6 |
| 20260905020328 | 62 | 277 | 0.0 | 2.0 | 0.00 | 0.00 | 0.00 | 82 | 1021.5 |
| 20260905015822 | 62 | 277 | 1.0 | 2.0 | 0.00 | 0.00 | 0.00 | 81 | 1021.5 |
| 20260905015318 | 63 | 277 | 1.0 | 2.0 | 0.00 | 0.00 | 0.00 | 80 | 1021.4 |
| 20260905014832 | 63 | 277 | 1.0 | 2.0 | 0.00 | 0.00 | 0.00 | 80 | 1021.4 |
| 20260905014329 | 63 | 277 | 1.0 | 3.0 | 0.00 | 0.00 | 0.00 | 80 | 1021.4 |
| 20260905013826 | 63 | 290 | 1.0 | 3.0 | 0.00 | 0.00 | 0.00 | 80 | 1021.4 |
| 20260905013324 | 63 | 298 | 1.0 | 4.0 | 0.00 | 0.00 | 0.00 | 80 | 1021.3 |
| 20260905012820 | 63 | 324 | 1.0 | 4.0 | 0.00 | 0.00 | 0.00 | 80 | 1021.2 |
| 20260905012339 | 63 | 343 | 1.0 | 3.0 | 0.00 | 0.00 | 0.00 | 79 | 1021.2 |
| 20260905011833 | 63 | 360 | 0.0 | 3.0 | 0.00 | 0.00 | 0.00 | 79 | 1021.3 |
| 20260905011330 | 63 | 290 | 0.0 | 3.0 | 0.00 | 0.00 | 0.00 | 79 | 1021.1 |
| 20260905010825 | 63 | 319 | 1.0 | 4.0 | 0.00 | 0.00 | 0.00 | 78 | 1021.1 |
| 20260905010322 | 63 | 300 | 2.0 | 6.0 | 0.00 | 0.00 | 0.00 | 78 | 1021.1 |
| 20260905005820 | 64 | 321 | 2.0 | 6.0 | 0.00 | 0.00 | 0.00 | 78 | 1021.0 |
| 20260905005318 | 64 | 295 | 3.0 | 6.0 | 0.00 | 0.00 | 0.00 | 77 | 1021.2 |
| 20260905004832 | 64 | 350 | 2.0 | 8.0 | 0.00 | 0.00 | 0.00 | 76 | 1021.1 |
| 20260905004350 | 64 | 331 | 5.0 | 8.0 | 0.00 | 0.00 | 0.00 | 76 | 1021.3 |
| 20260905003824 | 64 | 321 | 3.0 | 8.0 | 0.00 | 0.00 | 0.00 | 75 | 1021.2 |
| 20260905003321 | 64 | 313 | 4.0 | 8.0 | 0.00 | 0.00 | 0.00 | 75 | 1021.1 |
| 20260905002818 | 65 | 292 | 3.0 | 11.0 | 0.00 | 0.00 | 0.00 | 75 | 1021.2 |
| 20260905002315 | 65 | 317 | 3.0 | 11.0 | 0.00 | 0.00 | 0.00 | 74 | 1021.4 |
| 20260905001828 | 65 | 294 | 5.0 | 9.0 | 0.00 | 0.00 | 0.00 | 74 | 1021.4 |
| 20260905001324 | 65 | 338 | 4.0 | 12.0 | 0.00 | 0.00 | 0.00 | 74 | 1021.3 |
| 20260905000817 | 65 | 325 | 4.0 | 8.0 | 0.00 | 0.00 | 0.00 | 74 | 1021.3 |
| 20260905000315 | 65 | 311 | 4.0 | 9.0 | 0.00 | 0.00 | 0.00 | 73 | 1021.4 |
| 20260904235830 | 65 | 305 | 3.0 | 10.0 | 0.00 | 0.00 | 0.00 | 73 | 1021.3 |
| 20260904235328 | 65 | 329 | 4.0 | 12.0 | 0.00 | 0.00 | 0.00 | 73 | 1021.2 |
| 20260904234823 | 65 | 288 | 6.0 | 12.0 | 0.00 | 0.00 | 0.00 | 73 | 1021.1 |
| 20260904234320 | 65 | 329 | 7.0 | 12.0 | 0.00 | 0.00 | 0.00 | 75 | 1021.1 |
| 20260904233815 | 66 | 334 | 5.0 | 9.0 | 0.00 | 0.00 | 0.00 | 75 | 1021.0 |